[Date Prev][Date Next][Thread Prev][Thread Next] - [Date Index][Thread Index][Author Index]
2 Line ISS Keps 12-6
- Subject: [sarex] 2 Line ISS Keps 12-6
- From: "Dave Larsen PhD" <doc@xxxxxxxxxxx>
- Date: Thu, 6 Dec 2001 02:59:43 -0800
ISS
1 25544U 98067A 01340.19285880 .00064323 00000-0 68245-3 0 8017
2 25544 51.6401 303.3086 0010178 61.1459 144.2569 15.63410574173924
----
Via the sarex mailing list at AMSAT.ORG courtesy of AMSAT-NA.
To unsubscribe, send "unsubscribe sarex" to Majordomo@amsat.org
AMSAT Home